Regional Weather Roundup
Issued by NWS

Home | Current Version | Previous Version | Graphics & Text | Print | Product List | Glossary On
Versions: 1 2 3 4 5 6 7 8 9 10 11 12 13 14 15 16 17 18 19 20 21 22 23 24 25 26 27 28 29 30 31 32 33 34 35 36 37 38 39 40 41 42 43 44 45 46 47 48 49 50
000
ASUS43 KFSD 200910
RWRSD

WEATHER ROUNDUP FOR SOUTH DAKOTA
NATIONAL WEATHER SERVICE SIOUX FALLS SD
400 AM CDT FRI OCT 20 2017

NOTE: "FAIR" INDICATES FEW OR NO CLOUDS BELOW 12,000 FEET WITH NO
SIGNIFICANT WEATHER AND/OR OBSTRUCTIONS TO VISIBILITY.


SDZ001>005-009-010-012>017-201000-
NORTHWEST AND NORTH CENTRAL SOUTH DAKOTA

CITY           SKY/WX    TMP DP  RH WIND       PRES   REMARKS
BUFFALO          N/A     49  25  39 SW9       29.48F
MOBRIDGE       CLEAR     59  49  69 S12       29.57F
$$

SDZ012>016-024>037-041>051-057-063-072>074-201000-
SOUTHWEST AND SOUTH CENTRAL SOUTH DAKOTA

CITY           SKY/WX    TMP DP  RH WIND       PRES   REMARKS
RAPID CTY ARPT PTCLDY    52  26  36 CALM      29.63F
PIERRE         CLEAR     60  47  61 SE6       29.63F
CUSTER         CLEAR     57  22  25 SW7       29.76F
ELLSWORTH AFB  MOCLDY    58  26  29 S6        29.61F
PHILIP         PTCLDY    62  46  55 SW8       29.62F
PINE RIDGE     CLEAR     59  42  53 SW15G21   29.70F
SPEARFISH      FAIR      68  28  22 SW7G15    29.62F
WINNER         FAIR      65  44  46 S25G35    29.69F
$$

SDZ004>011-016>023-039-040-201000-
NORTHEAST SOUTH DAKOTA

CITY           SKY/WX    TMP DP  RH WIND       PRES   REMARKS
ABERDEEN       CLEAR     56  49  77 S16       29.67F
WATERTOWN      FAIR      53  50  89 S10       29.76F
BROOKINGS      FAIR      56  49  77 S12       29.81F
$$

SDZ017-020-022-023-036>040-048>070-201000-
SOUTHEAST SOUTH DAKOTA

CITY           SKY/WX    TMP DP  RH WIND       PRES   REMARKS
SIOUX FALLS    FAIR      58  50  75 S13       29.84F
HURON          PTCLDY    57  49  74 S13       29.73F
CHAMBERLAIN    PTCLDY    62  46  55 S3        29.72F
MITCHELL       PTCLDY    57  48  72 S14       29.76F
YANKTON        FAIR      61  48  62 S9        29.84F
$$

ABBREVIATIONS USED IN REMARKS
   TC - TEMPERATURE IN CELSIUS
  WCI - WIND CHILL INDEX
   HX - HEAT INDEX
  VSB - VISIBILITY





USA.gov is the U.S. government's official web portal to all federal, state and local government web resources and services.